When you browse on this site, cookies collect data to enhance your experience and personalize the content and advertising you see.
Visit our Privacy Policy to learn more. By continuing to use the site, you agree to this use of cookies and data.

Météo par heure à Paris

Ce jour, 7 Juillet, Mardi

Heure Température Précipitation Vent Pression Humidité
00:00 +13°C° 0 mm 2 m/s 763 mmHg 79%
01:00 +12°C° 0 mm 1 m/s 762 mmHg 80%
02:00 +12°C° 0 mm 1 m/s 762 mmHg 80%
03:00 +12°C° 0 mm 1 m/s 762 mmHg 81%
04:00 +12°C° 0 mm 1 m/s 762 mmHg 78%
05:00 +12°C° 0 mm 0 m/s 762 mmHg 76%
06:00 +13°C° 0 mm 0 m/s 762 mmHg 73%
07:00 +15°C° 0 mm 0 m/s 762 mmHg 66%
08:00 +19°C° 0 mm 1 m/s 762 mmHg 58%
09:00 +20°C° 0 mm 1 m/s 762 mmHg 51%
10:00 +22°C° 0 mm 1 m/s 762 mmHg 47%
11:00 +23°C° 0 mm 1 m/s 761 mmHg 43%
12:00 +24°C° 0 mm 1 m/s 761 mmHg 38%
13:00 +24°C° 0 mm 2 m/s 761 mmHg 38%
14:00 +25°C° 0 mm 2 m/s 760 mmHg 37%
15:00 +25°C° 0 mm 3 m/s 760 mmHg 37%
16:00 +24°C° 0 mm 3 m/s 760 mmHg 42%
17:00 +24°C° 0 mm 3 m/s 760 mmHg 46%
18:00 +22°C° 0 mm 3 m/s 759 mmHg 51%
19:00 +21°C° 0 mm 2 m/s 760 mmHg 55%
20:00 +19°C° 0 mm 2 m/s 760 mmHg 60%
21:00 +17°C° 0 mm 2 m/s 760 mmHg 64%
22:00 +17°C° 0 mm 2 m/s 760 mmHg 67%
23:00 +16°C° 0 mm 1 m/s 760 mmHg 70%

Demain, 8 Juillet, Mercredi

Heure Température Précipitation Vent Pression Humidité
00:00 +15°C° 0 mm 1 m/s 759 mmHg 73%
01:00 +15°C° 0 mm 1 m/s 759 mmHg 74%
02:00 +15°C° 0 mm 2 m/s 759 mmHg 74%
03:00 +14°C° 0 mm 2 m/s 759 mmHg 74%
04:00 +15°C° 0 mm 2 m/s 759 mmHg 70%
05:00 +15°C° 0 mm 2 m/s 759 mmHg 66%
06:00 +16°C° 0 mm 2 m/s 759 mmHg 62%
07:00 +18°C° 0 mm 3 m/s 759 mmHg 60%
08:00 +19°C° 0 mm 3 m/s 759 mmHg 59%
09:00 +21°C° 0 mm 3 m/s 759 mmHg 57%
10:00 +22°C° 0 mm 3 m/s 759 mmHg 57%
11:00 +24°C° 0 mm 3 m/s 759 mmHg 57%
12:00 +25°C° 0 mm 4 m/s 759 mmHg 56%
13:00 +25°C° 0 mm 3 m/s 759 mmHg 58%
14:00 +25°C° 0 mm 3 m/s 759 mmHg 60%
15:00 +25°C° 0 mm 3 m/s 759 mmHg 62%
16:00 +24°C° 0 mm 3 m/s 759 mmHg 64%
17:00 +24°C° 0 mm 3 m/s 759 mmHg 66%
18:00 +24°C° 0 mm 2 m/s 759 mmHg 68%
19:00 +23°C° 0 mm 2 m/s 759 mmHg 72%
20:00 +21°C° 0 mm 2 m/s 759 mmHg 76%
21:00 +21°C° 0 mm 1 m/s 759 mmHg 80%
22:00 +20°C° 0 mm 1 m/s 759 mmHg 82%
23:00 +19°C° 0 mm 1 m/s 759 mmHg 83%

Après-demain, 9 Juillet, Jeudi

Heure Température Précipitation Vent Pression Humidité
00:00 +19°C° 0 mm 1 m/s 759 mmHg 84%
01:00 +19°C° 0 mm 1 m/s 759 mmHg 85%
02:00 +18°C° 0 mm 1 m/s 759 mmHg 86%
03:00 +16°C° 0 mm 0 m/s 759 mmHg 87%
04:00 +19°C° 0 mm 1 m/s 759 mmHg 85%
05:00 +19°C° 0 mm 1 m/s 759 mmHg 83%
06:00 +20°C° 0 mm 1 m/s 758 mmHg 82%
07:00 +21°C° 0 mm 1 m/s 758 mmHg 75%
08:00 +23°C° 0 mm 2 m/s 758 mmHg 68%
09:00 +25°C° 0 mm 2 m/s 758 mmHg 61%
10:00 +26°C° 0 mm 3 m/s 758 mmHg 57%
11:00 +28°C° 0 mm 3 m/s 757 mmHg 52%
12:00 +29°C° 0 mm 4 m/s 757 mmHg 47%
13:00 +29°C° 0 mm 4 m/s 757 mmHg 46%
14:00 +30°C° 0 mm 4 m/s 756 mmHg 45%
15:00 +30°C° 0 mm 4 m/s 756 mmHg 44%
16:00 +30°C° 0 mm 4 m/s 755 mmHg 48%
17:00 +29°C° 0 mm 4 m/s 755 mmHg 51%
18:00 +28°C° 0 mm 4 m/s 754 mmHg 54%
19:00 +27°C° 0 mm 4 m/s 754 mmHg 60%
20:00 +26°C° 0 mm 4 m/s 754 mmHg 65%
21:00 +23°C° 0 mm 4 m/s 755 mmHg 70%
22:00 +22°C° 0 mm 4 m/s 754 mmHg 74%
23:00 +20°C° 0 mm 4 m/s 754 mmHg 77%

10 Juillet, Vendredi

Heure Température Précipitation Vent Pression Humidité
00:00 +19°C° 0 mm 4 m/s 754 mmHg 81%
01:00 +19°C° 0 mm 4 m/s 754 mmHg 79%
02:00 +19°C° 0 mm 5 m/s 755 mmHg 77%
03:00 +17°C° 0 mm 5 m/s 755 mmHg 75%
04:00 +17°C° 0 mm 5 m/s 755 mmHg 74%
05:00 +16°C° 0 mm 5 m/s 756 mmHg 72%
06:00 +15°C° 0 mm 5 m/s 756 mmHg 71%
07:00 +16°C° 0 mm 5 m/s 757 mmHg 66%
08:00 +17°C° 0 mm 5 m/s 758 mmHg 62%
09:00 +19°C° 0 mm 5 m/s 758 mmHg 57%
10:00 +19°C° 0 mm 4 m/s 759 mmHg 54%
11:00 +20°C° 0 mm 4 m/s 759 mmHg 50%
12:00 +21°C° 0 mm 4 m/s 760 mmHg 47%
13:00 +21°C° 0 mm 4 m/s 760 mmHg 46%
14:00 +22°C° 0 mm 4 m/s 760 mmHg 45%
15:00 +22°C° 0 mm 4 m/s 760 mmHg 44%
16:00 +21°C° 0 mm 4 m/s 760 mmHg 46%
17:00 +20°C° 0 mm 4 m/s 760 mmHg 49%
18:00 +20°C° 0 mm 4 m/s 760 mmHg 51%
19:00 +18°C° 0 mm 4 m/s 761 mmHg 55%
20:00 +17°C° 0 mm 4 m/s 761 mmHg 59%
21:00 +14°C° 0 mm 3 m/s 761 mmHg 63%
22:00 +13°C° 0 mm 3 m/s 762 mmHg 68%
23:00 +13°C° 0 mm 3 m/s 762 mmHg 72%

11 Juillet, Samedi

Heure Température Précipitation Vent Pression Humidité
00:00 +13°C° 0 mm 2 m/s 762 mmHg 76%
01:00 +13°C° 0 mm 2 m/s 762 mmHg 78%
02:00 +13°C° 0 mm 2 m/s 762 mmHg 80%
03:00 +12°C° 0 mm 2 m/s 762 mmHg 82%
04:00 +13°C° 0 mm 2 m/s 762 mmHg 80%
05:00 +14°C° 0 mm 2 m/s 763 mmHg 78%
06:00 +15°C° 0 mm 1 m/s 763 mmHg 75%
07:00 +16°C° 0 mm 2 m/s 763 mmHg 67%
08:00 +18°C° 0 mm 2 m/s 763 mmHg 58%
09:00 +19°C° 0 mm 3 m/s 763 mmHg 50%
10:00 +20°C° 0 mm 3 m/s 763 mmHg 46%
11:00 +21°C° 0 mm 3 m/s 763 mmHg 42%
12:00 +22°C° 0 mm 3 m/s 763 mmHg 37%
13:00 +22°C° 0 mm 4 m/s 763 mmHg 38%
14:00 +23°C° 0 mm 4 m/s 763 mmHg 38%
15:00 +23°C° 0 mm 4 m/s 763 mmHg 39%
16:00 +22°C° 0 mm 4 m/s 763 mmHg 41%
17:00 +21°C° 0 mm 4 m/s 763 mmHg 44%
18:00 +21°C° 0 mm 4 m/s 763 mmHg 47%
19:00 +19°C° 0 mm 3 m/s 763 mmHg 53%
20:00 +18°C° 0 mm 3 m/s 764 mmHg 59%
21:00 +16°C° 0 mm 3 m/s 764 mmHg 65%
22:00 +14°C° 0 mm 3 m/s 764 mmHg 69%
23:00 +13°C° 0 mm 3 m/s 764 mmHg 73%

12 Juillet, Dimanche

Heure Température Précipitation Vent Pression Humidité
00:00 +13°C° 0 mm 3 m/s 764 mmHg 77%
01:00 +13°C° 0 mm 2 m/s 764 mmHg 78%
02:00 +13°C° 0 mm 2 m/s 765 mmHg 79%
03:00 +12°C° 0 mm 2 m/s 765 mmHg 80%
04:00 +13°C° 0 mm 2 m/s 765 mmHg 77%
05:00 +14°C° 0 mm 2 m/s 765 mmHg 74%
06:00 +14°C° 0 mm 2 m/s 765 mmHg 71%
07:00 +16°C° 0 mm 3 m/s 765 mmHg 63%
08:00 +18°C° 0 mm 3 m/s 765 mmHg 55%
09:00 +19°C° 0 mm 3 m/s 765 mmHg 47%
10:00 +20°C° 0 mm 3 m/s 765 mmHg 43%
11:00 +22°C° 0 mm 3 m/s 765 mmHg 38%
12:00 +24°C° 0 mm 3 m/s 765 mmHg 34%
13:00 +24°C° 0 mm 3 m/s 764 mmHg 34%
14:00 +23°C° 0 mm 4 m/s 764 mmHg 35%
15:00 +25°C° 0 mm 4 m/s 764 mmHg 35%
16:00 +23°C° 0 mm 4 m/s 763 mmHg 39%
17:00 +24°C° 0 mm 3 m/s 763 mmHg 42%
18:00 +22°C° 0 mm 3 m/s 763 mmHg 46%
19:00 +21°C° 0 mm 3 m/s 763 mmHg 51%
20:00 +19°C° 0 mm 3 m/s 763 mmHg 55%
21:00 +18°C° 0 mm 3 m/s 763 mmHg 59%
22:00 +17°C° 0 mm 3 m/s 763 mmHg 63%
23:00 +16°C° 0 mm 3 m/s 763 mmHg 66%
Voir plus